Tracking 29040 objects as of 17-Jun-2024
HD Live streaming from Space Station
objects crossing your sky now

STARLINK-4008

Track STARLINK-4008 now!
10-day predictions
STARLINK-4008 is classified as:


NORAD ID: 52622
Int'l Code: 2022-052AA
Perigee: 546.2 km
Apogee: 547.6 km
Inclination: 53.2 °
Period: 95.4 minutes
Semi major axis: 6917 km
RCS: Unknown
Launch date: May 14, 2022
Source: United States (US)
Launch site: AIR FORCE EASTERN TEST RANGE (AFETR)
Your satellite tracking list
Your tracking list is empty




NASA's NSSDC Master Catalog

Two Line Element Set (TLE):
1 52622U 22052AA  24168.56594508  .00006348  00000-0  41655-3 0  9996
2 52622  53.2178 237.3489 0001010  98.9634 261.1472 15.08839372115503
Source of the keplerian elements: AFSPC